Fountain Dale, PA

11:50 AM EDT on May 25, 2018 (GMT -0400)
Fountain Dale

Weather History for KRYT - November, 2013

Change the Weather History Date:

Wednesday, November 13, 2013

  Actual Average (KHGR) Record (KHGR)
Temperature  
Mean Temperature 32 °F -  
Max Temperature 37 °F 50 °F 66 °F (2005)
Min Temperature 28 °F 34 °F 24 °F (1996)
Degree Days  
Heating Degree Days 32    
Moisture  
Dew Point 17 °F    
Average Humidity 51    
Maximum Humidity 61    
Minimum Humidity 43    
Precipitation  
Precipitation 0.00 in - - ()
Sea Level Pressure  
Sea Level Pressure 30.42 in    
Wind  
Wind Speed 4 mph (West)    
Max Wind Speed 10 mph    
Max Gust Speed 23 mph    
Visibility 10 miles    
Events      
Averages and records for this station are not official NWS values.
T = Trace of Precipitation, MM = Missing Value Source: NWS Daily Summary

Daily Weather History Graph

Daily Weather History Graph

Search for Another Location

Airport or City:

Astronomy

Nov. 13, 2013 Rise Set
Actual Time 6:52 AM EST 4:55 PM EST
Civil Twilight 6:23 AM EST 5:24 PM EST
Nautical Twilight 5:50 AM EST 5:56 PM EST
Astronomical Twilight 5:19 AM EST 6:28 PM EST
Moon 2:41 PM EST (11/13) 2:43 AM EST (11/13)
Length of Visible Light 11h 00m
Length of Day
10h 03m
Waxing Gibbous, 84% of the Moon is Illuminated
Nov 13
Waxing Gibbous
Nov 17
Full
Nov 25
Last Quarter
Dec 2
New
Dec 9
First Quarter

Hourly Weather History & Observations

Time (EST) Temp. Windchill Dew Point Humidity Pressure Visibility Wind Dir Wind Speed Gust Speed Precip Events Conditions
12:53 AM 30.0 °F 26.5 °F 17.1 °F 59% 30.40 in 10.0 mi Variable 3.5 mph - N/A   Mostly Cloudy
1:53 AM 28.9 °F - 16.0 °F 58% 30.39 in 10.0 mi Calm Calm - N/A   Clear
2:53 AM 28.9 °F 25.2 °F 16.0 °F 58% 30.40 in 10.0 mi Variable 3.5 mph - N/A   Partly Cloudy
3:53 AM 28.0 °F - 16.0 °F 61% 30.41 in 10.0 mi Calm Calm - N/A   Mostly Cloudy
4:53 AM 28.9 °F - 16.0 °F 58% 30.41 in 10.0 mi Calm Calm - N/A   Mostly Cloudy
5:53 AM 28.9 °F 25.2 °F 17.1 °F 61% 30.43 in 10.0 mi Variable 3.5 mph - N/A   Mostly Cloudy
6:53 AM 30.0 °F 26.5 °F 17.1 °F 59% 30.45 in 10.0 mi Variable 3.5 mph - N/A   Overcast
7:53 AM 30.0 °F 26.5 °F 15.1 °F 54% 30.47 in 10.0 mi Variable 3.5 mph - N/A   Partly Cloudy
8:53 AM 30.9 °F 24.3 °F 16.0 °F 54% 30.47 in 10.0 mi Variable 6.9 mph 18.4 mph N/A   Clear
9:53 AM 34.0 °F 28.8 °F 16.0 °F 48% 30.47 in 10.0 mi WNW 5.8 mph 17.3 mph N/A   Partly Cloudy
10:53 AM 35.1 °F 29.3 °F 16.0 °F 46% 30.47 in 10.0 mi Variable 6.9 mph 23.0 mph N/A   Mostly Cloudy
11:53 AM 36.0 °F 29.0 °F 17.1 °F 46% 30.46 in 10.0 mi NW 9.2 mph 17.3 mph N/A   Overcast
12:53 PM 37.0 °F 31.6 °F 18.0 °F 46% 30.43 in 10.0 mi Variable 6.9 mph - N/A   Mostly Cloudy
1:53 PM 37.9 °F 33.5 °F 18.0 °F 45% 30.42 in 10.0 mi Variable 5.8 mph 16.1 mph N/A   Partly Cloudy
2:53 PM 37.9 °F 32.1 °F 17.1 °F 43% 30.42 in 10.0 mi North 8.1 mph - N/A   Clear
3:53 PM 37.9 °F 31.5 °F 17.1 °F 43% 30.41 in 10.0 mi West 9.2 mph - N/A   Clear
4:53 PM 36.0 °F 32.1 °F 16.0 °F 44% 30.41 in 10.0 mi Variable 4.6 mph - N/A   Clear
5:53 PM 35.1 °F - 15.1 °F 44% 30.42 in 10.0 mi Calm Calm - N/A   Clear
6:53 PM 35.1 °F 32.2 °F 15.1 °F 44% 30.42 in 10.0 mi Variable 3.5 mph - N/A   Clear
7:53 PM 34.0 °F 28.8 °F 15.1 °F 46% 30.41 in 10.0 mi Variable 5.8 mph - N/A   Clear
8:53 PM 33.1 °F 26.9 °F 16.0 °F 50% 30.40 in 10.0 mi Variable 6.9 mph - N/A   Clear
9:53 PM 32.0 °F 23.6 °F 18.0 °F 56% 30.39 in 10.0 mi SW 10.4 mph 16.1 mph N/A   Clear
10:53 PM 32.0 °F 24.8 °F 18.0 °F 56% 30.37 in 10.0 mi SW 8.1 mph - N/A   Clear
11:53 PM 32.0 °F 26.4 °F 18.0 °F 56% 30.35 in 10.0 mi Variable 5.8 mph - N/A   Clear